QPF
0.00 0.00 0.00 0.00 0.00 0.00 0.00 0.00 0.00 0.00 0.00 0.00 0.00 0.00 0.00 0.00 0.00 0.00 0.00 0.00 0.00 0.00 0.00 0.00 0.00 0.00 0.00
0.00 0.00 0.00 0.00 0.00 0.00 0.00 0.00 0.00 0.00 0.00 0.00 0.00 0.00 0.00 0.00 0.00 0.00 0.00 0.00 0.00 0.00 0.00 0.00 0.00 0.00 0.00
0.00 0.00 0.00 0.00 0.00 0.00 0.00 0.00 0.00 0.00 0.00 0.00 0.00 0.00 0.00 0.00 0.00 0.00 0.00 0.00 0.00 0.00 0.00 0.00 0.00 0.00 0.00
0.00 0.00 0.00 0.00 0.00 0.00 0.00 0.00 0.00 0.00 0.00 0.00 0.00 0.00 0.00 0.00 0.00 0.00 0.00 0.00 0.00 0.00 0.00 0.00 0.00 0.00 0.00
0.00 0.00 0.00 0.00 0.00 0.00 0.00 0.00 0.00 0.00 0.00 0.00 0.00 0.00 0.00 0.00 0.00 0.00 0.00 0.00 0.00 0.00 0.00 0.00 0.00 0.00 0.00
0.00 0.00 0.00 0.00 0.00 0.00 0.00 0.00 0.00 0.00 0.00 0.00 0.00 0.00 0.00 0.00 0.00 0.00 0.00 0.00 0.00 0.00 0.00 0.00 0.00 0.00 0.00
0.00 0.00 0.00 0.00 0.00 0.00 0.00 0.00 0.00 0.00 0.00 0.00 0.00 0.00 0.00 0.00 0.00 0.00 0.00 0.00 0.00 0.00 0.00 0.00 0.00 0.01 0.00
0.00 0.00 0.00 0.00 0.00 0.00 0.00 0.00 0.00 0.00 0.01 0.00 0.00 0.00 0.00 0.00 0.00 0.00 0.00 0.00 0.00 0.00 0.00 0.01 0.00 0.01 0.01
0.00 0.00 0.00 0.00 0.00 0.00 0.00 0.00 0.00 0.00 0.00 0.01 0.00 0.00 0.00 0.00 0.00 0.00 0.00 0.00 0.00 0.00 0.00 0.01 0.02 0.01 0.01
0.00 0.00 0.00 0.00 0.00 0.00 0.00 0.00 0.00 0.00 0.00 0.01 0.01 0.01 0.01 0.00 0.00 0.00 0.00 0.00 0.00 0.00 0.00 0.00 0.01 0.01 0.00
0.00 0.00 0.00 0.00 0.00 0.00 0.00 0.00 0.00 0.00 0.00 0.01 0.00 0.02 0.03 0.01 0.00 0.00 0.00 0.00 0.00 0.00 0.00 0.00 0.00 0.00 0.00
0.00 0.00 0.00 0.00 0.00 0.00 0.00 0.00 0.00 0.00 0.00 0.00 0.01 0.01 0.03 0.03 0.02 0.00 0.00 0.00 0.00 0.00 0.00 0.00 0.00 0.00 0.01
0.00 0.00 0.00 0.00 0.00 0.00 0.00 0.00 0.00 0.00 0.00 0.00 0.00 0.01 0.02 0.03 0.03 0.01 0.00 0.00 0.00 0.00 0.00 0.00 0.00 0.00 0.01
0.00 0.00 0.00 0.00 0.00 0.00 0.00 0.00 0.00 0.00 0.00 0.00 0.00 0.00 0.01 0.04 0.03 0.03 0.01 0.01 0.00 0.00 0.00 0.00 0.00 0.00 0.01
0.00 0.00 0.00 0.00 0.00 0.00 0.00 0.00 0.00 0.00 0.00 0.00 0.00 0.00 0.01 0.02 0.03 0.02 0.01 0.01 0.00 0.00 0.00 0.00 0.00 0.00 0.00
0.00 0.00 0.00 0.00 0.00 0.00 0.00 0.00 0.00 0.00 0.00 0.00 0.00 0.01 0.03 0.02 0.02 0.01 0.00 0.00 0.00 0.00 0.00 0.00 0.00 0.00 0.00
0.00 0.00 0.00 0.00 0.00 0.00 0.00 0.00 0.00 0.00 0.00 0.00 0.00 0.01 0.03 0.03 0.00 0.00 0.00 0.00 0.01 0.01 0.01 0.00 0.00 0.00 0.00
MSLP
1016.14 1015.36 1014.93 1014.49 1014.01 1013.66 1013.26 1012.89 1012.55 1012.20 1011.96 1011.92 1012.10 1012.13 1012.02 1011.88 1011.79 1011.69 1011.65 1011.48 1011.25 1011.07 1010.66 1010.60 1010.73 1010.39 1010.74
1015.72 1015.32 1014.77 1014.27 1013.81 1013.48 1013.03 1012.42 1012.13 1011.74 1011.40 1011.25 1011.39 1011.48 1011.53 1011.42 1011.15 1010.95 1010.88 1010.82 1010.68 1010.74 1010.70 1010.47 1010.32 1010.24 1010.30
1015.12 1014.91 1014.34 1013.90 1013.42 1012.97 1012.63 1012.27 1011.76 1011.29 1010.98 1010.75 1010.52 1010.55 1010.67 1010.74 1010.67 1010.60 1010.59 1010.43 1010.29 1010.16 1009.91 1009.68 1009.83 1009.64 1009.64
1014.60 1014.17 1013.65 1013.20 1013.05 1012.83 1012.19 1011.80 1011.51 1011.00 1010.63 1010.33 1010.08 1009.94 1009.90 1009.99 1010.10 1010.14 1010.24 1010.14 1009.98 1009.68 1009.52 1009.36 1009.30 1008.96 1009.19
1014.02 1013.74 1013.40 1013.03 1012.79 1012.48 1012.16 1011.61 1010.99 1010.60 1010.27 1009.99 1009.80 1009.64 1009.43 1009.38 1009.47 1009.55 1009.51 1009.61 1009.60 1009.31 1009.06 1008.92 1008.62 1008.39 1008.36
1013.28 1013.16 1012.70 1012.56 1012.40 1012.21 1011.90 1011.65 1011.06 1010.27 1010.17 1009.92 1009.67 1009.44 1009.41 1009.12 1008.87 1008.68 1008.64 1008.60 1008.67 1008.67 1008.46 1008.23 1007.62 1007.47 1007.36
1012.22 1012.08 1012.14 1011.93 1011.97 1011.74 1011.53 1011.34 1011.00 1010.47 1010.14 1009.64 1009.39 1009.28 1009.03 1008.56 1008.32 1008.22 1008.13 1007.97 1007.93 1007.76 1007.44 1007.06 1006.83 1006.55 1006.53
1010.97 1010.93 1011.01 1010.96 1011.12 1011.06 1010.88 1010.83 1010.55 1010.33 1010.05 1009.53 1008.88 1008.64 1008.35 1007.91 1007.57 1007.47 1007.53 1007.49 1007.38 1006.98 1006.69 1006.50 1006.41 1006.11 1006.08
1010.07 1010.07 1010.05 1009.98 1009.98 1010.30 1010.39 1010.64 1010.60 1010.19 1009.68 1009.38 1008.87 1008.39 1007.94 1007.31 1006.79 1006.60 1006.78 1006.76 1006.66 1006.51 1006.22 1006.08 1005.92 1005.82 1005.81
1009.31 1009.19 1009.21 1009.24 1009.24 1009.48 1009.85 1010.15 1010.35 1009.89 1009.08 1009.31 1009.05 1008.83 1007.83 1006.60 1006.23 1006.34 1006.70 1006.52 1006.41 1006.11 1005.87 1005.86 1005.83 1005.62 1005.59
1008.78 1008.72 1008.78 1008.93 1009.01 1009.06 1009.20 1009.50 1009.72 1009.48 1008.77 1009.01 1008.65 1008.30 1008.14 1007.38 1006.97 1006.69 1006.56 1006.63 1006.47 1005.98 1005.67 1005.64 1005.68 1005.54 1005.41
1008.18 1008.17 1008.29 1008.41 1008.44 1008.51 1008.62 1008.69 1008.65 1008.75 1008.36 1008.48 1008.53 1008.12 1007.81 1007.26 1006.94 1006.66 1006.43 1006.61 1006.61 1006.02 1005.85 1005.53 1005.43 1005.24 1005.06
1007.47 1007.53 1007.57 1007.52 1007.71 1008.08 1008.06 1008.04 1008.08 1008.12 1007.88 1007.52 1007.80 1007.60 1007.62 1007.03 1006.73 1006.44 1006.56 1006.40 1006.30 1006.04 1005.99 1005.70 1005.63 1005.55 1005.13
1006.47 1006.57 1006.75 1007.15 1007.27 1007.39 1007.75 1007.73 1007.84 1007.38 1007.04 1006.72 1006.84 1007.03 1006.66 1006.42 1006.30 1005.85 1005.86 1005.97 1005.89 1005.84 1006.10 1005.65 1005.52 1005.71 1005.59
1005.82 1005.98 1006.24 1006.44 1006.55 1006.61 1006.79 1006.89 1006.82 1006.67 1006.32 1006.13 1005.92 1005.86 1005.94 1005.89 1005.53 1005.26 1005.20 1005.42 1005.30 1005.46 1005.78 1005.61 1005.35 1005.39 1005.38
1005.03 1005.18 1005.42 1005.69 1005.86 1005.97 1006.06 1005.99 1005.84 1005.60 1005.64 1005.60 1005.58 1005.62 1005.38 1004.79 1004.65 1004.36 1004.32 1004.60 1004.78 1005.07 1005.32 1005.47 1005.44 1004.96 1005.01
1004.20 1004.34 1004.45 1004.57 1004.93 1005.04 1005.16 1005.08 1004.83 1004.74 1004.60 1004.69 1004.86 1004.95 1004.73 1004.05 1003.58 1003.34 1003.52 1003.89 1004.42 1004.73 1004.92 1005.13 1004.98 1004.76 1004.85
Thickness
5440 5447 5453 5456 5463 5469 5476 5483 5491 5499 5505 5509 5512 5518 5524 5531 5535 5540 5544 5551 5559 5567 5576 5584 5591 5598 5601
5412 5418 5426 5432 5440 5446 5453 5462 5470 5478 5488 5495 5499 5504 5509 5515 5523 5530 5535 5540 5549 5554 5559 5570 5575 5582 5588
5385 5391 5401 5408 5412 5424 5433 5440 5449 5459 5468 5478 5487 5491 5497 5502 5508 5515 5521 5529 5536 5543 5551 5559 5563 5571 5577
5356 5367 5379 5386 5389 5396 5410 5420 5428 5437 5448 5460 5468 5477 5484 5489 5497 5502 5506 5515 5522 5531 5538 5546 5553 5562 5565
5328 5337 5351 5358 5364 5372 5382 5396 5411 5421 5430 5438 5448 5459 5470 5477 5484 5489 5496 5501 5508 5517 5525 5533 5542 5551 5557
5303 5312 5326 5331 5339 5350 5359 5367 5385 5401 5407 5419 5427 5440 5450 5460 5468 5477 5485 5493 5499 5505 5514 5522 5534 5543 5550
5284 5294 5299 5306 5318 5329 5335 5346 5358 5373 5383 5400 5408 5421 5429 5443 5451 5461 5471 5481 5488 5497 5506 5517 5526 5536 5543
5274 5281 5284 5290 5294 5306 5319 5329 5338 5350 5358 5380 5393 5406 5414 5428 5438 5448 5457 5466 5475 5486 5496 5505 5514 5524 5531
5265 5269 5274 5279 5283 5286 5298 5306 5316 5327 5338 5355 5372 5384 5398 5414 5426 5438 5445 5453 5462 5473 5484 5493 5502 5510 5518
5258 5263 5267 5270 5274 5276 5281 5287 5293 5307 5321 5333 5346 5358 5380 5400 5410 5420 5426 5436 5446 5458 5469 5479 5487 5497 5505
5252 5256 5258 5260 5262 5266 5269 5273 5279 5293 5305 5311 5328 5343 5356 5376 5386 5396 5408 5417 5428 5443 5455 5465 5473 5483 5491
5246 5251 5254 5255 5255 5258 5261 5266 5272 5280 5289 5298 5310 5324 5338 5355 5370 5379 5390 5398 5409 5426 5438 5450 5459 5469 5478
5238 5243 5245 5249 5249 5249 5252 5255 5261 5267 5276 5288 5295 5308 5319 5338 5352 5363 5372 5382 5392 5407 5420 5432 5442 5450 5463
5233 5237 5236 5236 5240 5241 5240 5243 5245 5257 5264 5276 5282 5291 5308 5324 5335 5352 5361 5373 5380 5392 5402 5417 5428 5435 5443
5221 5223 5225 5228 5231 5231 5233 5233 5241 5248 5257 5264 5272 5283 5297 5309 5324 5339 5351 5359 5370 5379 5389 5402 5414 5423 5431
5215 5218 5219 5217 5221 5220 5222 5226 5235 5241 5248 5254 5257 5269 5285 5303 5316 5331 5342 5353 5360 5368 5378 5390 5400 5413 5421
5211 5211 5211 5214 5215 5216 5216 5222 5229 5235 5243 5243 5249 5261 5276 5297 5308 5323 5335 5342 5347 5356 5367 5379 5391 5402 5410